�������C�����ː����j�^�v���󋵏��
Date,Time,Cs137(Bq/L),Cs134(Bq/L),�S��(Bq/L)
2019/11/09,00:00,0.78,ND,8.9
2019/11/09,00:10,0.81,ND,ND
2019/11/09,00:20,0.81,ND,ND
2019/11/09,00:30,0.83,ND,ND
2019/11/09,00:40,0.82,ND,ND
2019/11/09,00:50,0.81,ND,ND
2019/11/09,01:00,0.81,ND,ND
2019/11/09,01:10,0.80,ND,ND
2019/11/09,01:20,0.81,ND,ND
2019/11/09,01:30,0.81,ND,ND
2019/11/09,01:40,0.79,ND,ND
2019/11/09,01:50,0.79,ND,ND
2019/11/09,02:00,0.79,ND,ND
2019/11/09,02:10,0.81,ND,ND
2019/11/09,02:20,0.78,ND,ND
2019/11/09,02:30,0.79,ND,11
2019/11/09,02:40,0.80,ND,11
2019/11/09,02:50,0.80,ND,11
2019/11/09,03:00,0.81,ND,9.6
2019/11/09,03:10,0.79,ND,10
2019/11/09,03:20,0.81,ND,9.3
2019/11/09,03:30,0.79,ND,ND
2019/11/09,03:40,0.78,ND,ND
2019/11/09,03:50,0.80,ND,ND
2019/11/09,04:00,0.78,ND,ND
2019/11/09,04:10,0.78,ND,ND
2019/11/09,04:20,0.78,ND,ND
2019/11/09,04:30,0.77,ND,8.8
2019/11/09,04:40,0.78,ND,8.8
2019/11/09,04:50,0.73,ND,ND
2019/11/09,05:00,0.74,ND,ND
2019/11/09,05:10,0.74,ND,11
2019/11/09,05:20,0.76,ND,9.9
2019/11/09,05:30,0.74,ND,11
2019/11/09,05:40,0.73,ND,10
2019/11/09,05:50,0.74,ND,12
2019/11/09,06:00,0.73,ND,10
2019/11/09,06:10,0.75,ND,ND
2019/11/09,06:20,0.74,ND,ND
2019/11/09,06:30,0.76,ND,ND
2019/11/09,06:40,0.78,ND,ND
2019/11/09,06:50,0.81,ND,ND
2019/11/09,07:00,0.82,ND,ND
2019/11/09,07:10,0.82,ND,ND
2019/11/09,07:20,0.83,ND,8.8
2019/11/09,07:30,0.85,ND,10
2019/11/09,07:40,0.95,ND,9.6
2019/11/09,07:50,0.96,ND,12
2019/11/09,08:00,0.86,ND,10
2019/11/09,08:10,0.86,ND,10
2019/11/09,08:20,0.85,ND,8.8
2019/11/09,08:30,0.81,ND,ND
2019/11/09,08:40,0.86,ND,9.0
2019/11/09,08:50,0.85,ND,ND
2019/11/09,09:00,0.82,ND,ND
2019/11/09,09:10,0.84,ND,ND
2019/11/09,09:20,0.85,ND,ND
2019/11/09,09:30,0.87,ND,9.6
2019/11/09,09:40,0.87,ND,9.0
2019/11/09,09:50,0.87,ND,ND
2019/11/09,10:00,0.85,ND,ND
2019/11/09,10:10,0.84,ND,9.5
2019/11/09,10:20,0.85,ND,ND
2019/11/09,10:30,0.85,ND,ND
2019/11/09,10:40,0.85,ND,ND
2019/11/09,10:50,0.86,ND,ND
2019/11/09,11:00,0.87,ND,8.9
2019/11/09,11:10,0.90,ND,ND
2019/11/09,11:20,0.88,ND,ND
2019/11/09,11:30,0.88,ND,ND
2019/11/09,11:40,0.85,ND,ND
2019/11/09,11:50,0.82,ND,ND
2019/11/09,12:00,0.81,ND,ND
2019/11/09,12:10,0.78,ND,ND
2019/11/09,12:20,0.78,ND,10
2019/11/09,12:30,0.77,ND,9.7
2019/11/09,12:40,0.80,ND,ND
2019/11/09,12:50,0.82,ND,12
2019/11/09,13:00,0.82,ND,12
2019/11/09,13:10,0.84,ND,ND
2019/11/09,13:20,0.83,ND,ND
2019/11/09,13:30,0.84,ND,ND
2019/11/09,13:40,0.81,ND,ND
2019/11/09,13:50,0.82,ND,ND
2019/11/09,14:00,0.81,ND,ND
2019/11/09,14:10,0.80,ND,ND
2019/11/09,14:20,0.91,ND,ND
2019/11/09,14:30,0.89,ND,ND
2019/11/09,14:40,0.90,ND,ND
2019/11/09,14:50,0.87,ND,ND
2019/11/09,15:00,0.89,ND,ND
2019/11/09,15:10,0.89,ND,ND
2019/11/09,15:20,0.89,ND,ND
2019/11/09,15:30,0.89,ND,ND
2019/11/09,15:40,0.80,ND,9.7
2019/11/09,15:50,0.89,ND,9.7
2019/11/09,16:00,0.87,ND,ND
2019/11/09,16:10,0.88,ND,ND
2019/11/09,16:20,0.88,ND,ND
2019/11/09,16:30,0.78,ND,11
2019/11/09,16:40,0.80,ND,9.7
2019/11/09,16:50,0.83,ND,ND
2019/11/09,17:00,0.84,ND,ND
2019/11/09,17:10,0.83,ND,ND
2019/11/09,17:20,0.83,ND,ND
2019/11/09,17:30,0.85,ND,ND
2019/11/09,17:40,0.83,ND,ND
2019/11/09,17:50,0.82,ND,ND
2019/11/09,18:00,0.81,ND,ND
2019/11/09,18:10,0.82,ND,8.9
2019/11/09,18:20,0.82,ND,9.3
2019/11/09,18:30,0.81,ND,8.9
2019/11/09,18:40,0.81,ND,ND
2019/11/09,18:50,0.85,ND,ND
2019/11/09,19:00,0.84,ND,ND
2019/11/09,19:10,0.84,ND,ND
2019/11/09,19:20,0.85,ND,ND
2019/11/09,19:30,0.86,ND,ND
2019/11/09,19:40,0.85,ND,ND
2019/11/09,19:50,0.84,ND,ND
2019/11/09,20:00,0.85,ND,10
2019/11/09,20:10,0.84,ND,11
2019/11/09,20:20,0.84,ND,ND
2019/11/09,20:30,0.84,ND,11
2019/11/09,20:40,0.95,ND,12
2019/11/09,20:50,0.95,ND,13
2019/11/09,21:00,0.95,ND,11
2019/11/09,21:10,0.96,ND,11
2019/11/09,21:20,0.98,ND,11
2019/11/09,21:30,0.96,ND,9.3
2019/11/09,21:40,0.98,ND,9.2
2019/11/09,21:50,0.98,ND,9.9
2019/11/09,22:00,0.98,ND,9.3
2019/11/09,22:10,0.98,ND,ND
2019/11/09,22:20,0.98,ND,ND
2019/11/09,22:30,0.89,ND,ND
2019/11/09,22:40,0.97,ND,ND
2019/11/09,22:50,0.88,ND,ND
2019/11/09,23:00,0.87,ND,ND
2019/11/09,23:10,0.89,ND,8.9
2019/11/09,23:20,0.87,ND,10
2019/11/09,23:30,0.89,ND,11
2019/11/09,23:40,0.90,ND,13
2019/11/09,23:50,0.90,ND,13
